Weather History for Bettles, AK

Change the Weather History Date:

Monday, September 23, 2013

  Actual Average Record
Temperature  
Mean Temperature 23 °F -  
Max Temperature 28 °F 43 °F 58 °F (1984)
Min Temperature 18 °F 26 °F 0 °F (1992)
Degree Days  
Heating Degree Days 42    
Moisture  
Dew Point 20 °F    
Average Humidity 91    
Maximum Humidity 100    
Minimum Humidity 79    
Precipitation  
Precipitation 0.00 in - - ()
Sea Level Pressure  
Sea Level Pressure 29.72 in    
Wind  
Wind Speed 1 mph (South)    
Max Wind Speed 5 mph    
Max Gust Speed -    
Visibility 6 miles    
Events Fog    
Averages and records for this station are not official NWS values.
T = Trace of Precipitation, MM = Missing Value Source: NWS Daily Summary

Daily Weather History Graph

Daily Weather History Graph

Search for Another Location

Airport:

Trip Planner

Search our weather history database for the weather conditions in past years. The results will help you decide how hot, cold, wet, or windy it might be!

Date:

Astronomy

Sep. 23, 2013 Rise Set
Actual Time 7:52 AM AKDT 8:01 PM AKDT
Civil Twilight 6:59 AM AKDT 8:54 PM AKDT
Nautical Twilight 5:53 AM AKDT 10:00 PM AKDT
Astronomical Twilight 4:34 AM AKDT 11:17 PM AKDT
Moon 8:22 PM AKDT (9/23) 2:38 PM AKDT (9/23)
Length of Visible Light 13h 55m
Length of Day
12h 09m
Waning Gibbous, 80% of the Moon is Illuminated
Sep 23
Waning Gibbous
Sep 26
Last Quarter
Oct 4
New
Oct 11
First Quarter
Oct 18
Full

Hourly Weather History & Observations

Time (AKDT) Temp. Windchill Dew Point Humidity Pressure Visibility Wind Dir Wind Speed Gust Speed Precip Events Conditions
12:53 AM 19.0 °F - 17.1 °F 92% 29.58 in 10.0 mi Calm Calm - N/A Fog Patches of Fog
1:08 AM 19.4 °F - 15.8 °F 86% 29.53 in 10.0 mi Calm Calm - N/A Fog Patches of Fog
1:53 AM 18.0 °F - 17.1 °F 96% 29.59 in 0.5 mi Calm Calm - N/A Fog Light Freezing Fog
2:53 AM 21.0 °F - 19.9 °F 96% 29.61 in 0.5 mi Calm Calm - N/A Fog Light Freezing Fog
3:53 AM 19.9 °F - 19.0 °F 96% 29.63 in 0.2 mi Calm Calm - N/A Fog Light Freezing Fog
4:53 AM 21.0 °F - 19.9 °F 96% 29.65 in 0.5 mi Calm Calm - N/A Fog Light Freezing Fog
5:53 AM 19.9 °F 14.9 °F 19.0 °F 96% 29.66 in 0.2 mi NW 3.5 mph - N/A Fog Light Freezing Fog
6:05 AM 19.4 °F - 19.4 °F 100% 29.62 in 2.0 mi Calm Calm - N/A   Mist
6:13 AM 19.4 °F 12.8 °F 15.8 °F 86% 29.62 in 8.0 mi NW 4.6 mph - N/A   Overcast
6:53 AM 18.0 °F 12.7 °F 16.0 °F 92% 29.68 in 2.0 mi WNW 3.5 mph - N/A   Overcast
7:01 AM 17.6 °F - 15.8 °F 93% 29.64 in 1.0 mi Calm Calm - N/A   Mist
7:08 AM 17.6 °F - 17.6 °F 100% 29.64 in 0.5 mi Calm Calm - N/A Fog Light Freezing Fog
7:53 AM 19.0 °F 13.9 °F 17.1 °F 92% 29.70 in 0.2 mi NNW 3.5 mph - N/A Fog Light Freezing Fog
8:43 AM 19.4 °F - 17.6 °F 93% 29.67 in 1.5 mi Calm Calm - N/A   Overcast
8:53 AM 19.0 °F - 17.1 °F 92% 29.72 in 1.5 mi Calm Calm - N/A   Overcast
9:01 AM 19.4 °F - 17.6 °F 93% 29.67 in 3.0 mi Calm Calm - N/A Fog Overcast
9:53 AM 19.9 °F - 18.0 °F 92% 29.73 in 3.0 mi Calm Calm - N/A Fog Overcast
10:18 AM 21.2 °F - 19.4 °F 93% 29.69 in 6.0 mi Calm Calm - N/A Fog Overcast
10:53 AM 21.9 °F 15.7 °F 19.9 °F 92% 29.75 in 4.0 mi NE 4.6 mph - N/A Fog Overcast
11:53 AM 24.1 °F - 21.9 °F 91% 29.76 in 10.0 mi Calm Calm - N/A Fog Overcast
12:53 PM 25.0 °F - 23.0 °F 92% 29.77 in 10.0 mi Calm Calm - N/A Fog Overcast
1:53 PM 26.1 °F - 24.1 °F 92% 29.78 in 10.0 mi Calm Calm - N/A Fog Overcast
2:53 PM 26.1 °F - 23.0 °F 88% 29.79 in 10.0 mi Calm Calm - N/A   Overcast
3:53 PM 27.0 °F - 23.0 °F 85% 29.80 in 10.0 mi Calm Calm - N/A   Overcast
4:53 PM 28.0 °F - 23.0 °F 81% 29.81 in 10.0 mi Calm Calm - N/A   Overcast
5:53 PM 28.0 °F 24.2 °F 23.0 °F 81% 29.82 in 10.0 mi South 3.5 mph - N/A   Overcast
6:53 PM 28.0 °F - 24.1 °F 85% 29.83 in 10.0 mi Calm Calm - N/A   Overcast
7:53 PM 28.0 °F 24.2 °F 24.1 °F 85% 29.84 in 10.0 mi SSE 3.5 mph - N/A   Overcast
8:53 PM 28.0 °F 24.2 °F 25.0 °F 88% 29.85 in 10.0 mi SSE 3.5 mph - N/A   Overcast
9:53 PM 27.0 °F 21.6 °F 25.0 °F 92% 29.86 in 10.0 mi SE 4.6 mph - N/A   Overcast
10:53 PM 27.0 °F 21.6 °F 25.0 °F 92% 29.87 in 10.0 mi SE 4.6 mph - N/A   Overcast
11:53 PM 27.0 °F - 25.0 °F 92% 29.88 in 10.0 mi Calm Calm - N/A   Overcast